Regional Weather Roundup
Issued by NWS

Home | Current Version | Previous Version | Graphics & Text | Print | Product List | Glossary On
Versions: 1 2 3 4 5 6 7 8 9 10 11 12 13 14 15 16 17 18 19 20 21 22 23 24 25 26 27 28 29 30 31 32 33 34 35 36 37 38 39 40 41 42 43 44 45 46 47 48 49 50
000
ASUS43 KFSD 291102
RWRSD

WEATHER ROUNDUP FOR SOUTH DAKOTA
NATIONAL WEATHER SERVICE SIOUX FALLS SD
600 AM CDT THU JUN 29 2017

NOTE: "FAIR" INDICATES FEW OR NO CLOUDS BELOW 12,000 FEET WITH NO
SIGNIFICANT WEATHER AND/OR OBSTRUCTIONS TO VISIBILITY.


SDZ001>005-009-010-012>017-291200-
NORTHWEST AND NORTH CENTRAL SOUTH DAKOTA

CITY           SKY/WX    TMP DP  RH WIND       PRES   REMARKS
BUFFALO          N/A     60  52  74 CALM      29.78R
FAITH            N/A     58  56  93 W7        29.83R
MOBRIDGE       CLOUDY    61  49  64 NW3       29.76R
$$

SDZ012>016-024>037-041>051-057-063-072>074-291200-
SOUTHWEST AND SOUTH CENTRAL SOUTH DAKOTA

CITY           SKY/WX    TMP DP  RH WIND       PRES   REMARKS
RAPID CTY ARPT CLOUDY    59  52  77 N8        29.83R
PIERRE         CLOUDY    55  46  71 N8        29.75R
CUSTER         CLOUDY    49  40  71 N3        29.91R
ELLSWORTH AFB  CLOUDY    61  52  73 N12       29.82R
PHILIP         CLOUDY    59  49  69 NE3       29.78R
PINE RIDGE     CLEAR     53  52  96 NW5       29.81R
SPEARFISH      LGT RAIN  54  54 100 NW6       29.90R
WINNER         FAIR      62  51  67 SE7       29.76R
$$

SDZ004>011-016>023-039-040-291200-
NORTHEAST SOUTH DAKOTA

CITY           SKY/WX    TMP DP  RH WIND       PRES   REMARKS
ABERDEEN       CLOUDY    50  49  96 CALM      29.76R
WATERTOWN      FOG       53  53 100 CALM      29.76R VSB 1/4
BROOKINGS      PTCLDY    53  52  96 CALM      29.78R
SISSETON         N/A     58  58 100 NW7       29.73R
$$

SDZ017-020-022-023-036>040-048>070-291200-
SOUTHEAST SOUTH DAKOTA

CITY           SKY/WX    TMP DP  RH WIND       PRES   REMARKS
SIOUX FALLS    CLOUDY    59  59 100 CALM      29.78R
HURON          PTCLDY    54  49  83 CALM      29.75R
CHAMBERLAIN    MOCLDY    63  45  52 NE6       29.75R
MITCHELL       CLOUDY    58  50  75 CALM      29.77R
YANKTON        MOCLDY    63  59  87 E3        29.77R
$$

ABBREVIATIONS USED IN REMARKS
   TC - TEMPERATURE IN CELSIUS
  WCI - WIND CHILL INDEX
   HX - HEAT INDEX
  VSB - VISIBILITY





USA.gov is the U.S. government's official web portal to all federal, state and local government web resources and services.